TimeEST,TemperatureF,Dew PointF,Humidity,Sea Level PressureIn,VisibilityMPH,Wind Direction,Wind SpeedMPH,Gust SpeedMPH,PrecipitationIn,Events,Conditions,WindDirDegrees,DateUTC
12:15 AM,35.6,17.6,48,30.07,10.0,NNW,10.4,18.4,N/A,,Clear,330,2013-01-21 05:15:00
12:35 AM,35.6,15.8,44,30.06,10.0,NNW,6.9,18.4,N/A,,Clear,330,2013-01-21 05:35:00
12:55 AM,35.6,15.8,44,30.05,10.0,NNW,13.8,20.7,N/A,,Clear,340,2013-01-21 05:55:00
1:15 AM,35.6,15.8,44,30.07,10.0,NNW,11.5,16.1,N/A,,Clear,330,2013-01-21 06:15:00
1:35 AM,35.6,15.8,44,30.08,10.0,North,12.7,17.3,N/A,,Clear,350,2013-01-21 06:35:00
1:55 AM,35.6,15.8,44,30.09,10.0,North,9.2,-,N/A,,Clear,350,2013-01-21 06:55:00
2:15 AM,33.8,15.8,48,30.09,10.0,North,9.2,-,N/A,,Clear,350,2013-01-21 07:15:00
2:35 AM,33.8,14.0,44,30.09,10.0,North,10.4,16.1,N/A,,Clear,350,2013-01-21 07:35:00
2:55 AM,33.8,14.0,44,30.08,10.0,North,11.5,18.4,N/A,,Clear,350,2013-01-21 07:55:00
3:15 AM,32.0,12.2,44,30.08,10.0,North,9.2,-,N/A,,Clear,350,2013-01-21 08:15:00
3:35 AM,32.0,14.0,48,30.09,10.0,North,9.2,-,N/A,,Clear,350,2013-01-21 08:35:00
3:55 AM,30.2,12.2,47,30.09,10.0,North,6.9,-,N/A,,Clear,360,2013-01-21 08:55:00
4:15 AM,30.2,12.2,47,30.10,10.0,North,3.5,-,N/A,,Clear,10,2013-01-21 09:15:00
4:35 AM,30.2,12.2,47,30.10,-9999.0,North,5.8,-,N/A,,Clear,360,2013-01-21 09:35:00
4:55 AM,28.4,12.2,51,30.09,-9999.0,North,4.6,-,N/A,,Clear,360,2013-01-21 09:55:00
5:15 AM,28.4,12.2,51,30.10,-9999.0,North,5.8,-,N/A,,Clear,360,2013-01-21 10:15:00
5:55 AM,28.4,10.4,47,30.11,-9999.0,Calm,Calm,-,N/A,,Clear,0,2013-01-21 10:55:00
6:15 AM,26.6,12.2,55,30.12,-9999.0,Calm,Calm,-,N/A,,Clear,0,2013-01-21 11:15:00
6:35 AM,26.6,12.2,55,30.12,-9999.0,Calm,Calm,-,N/A,,Clear,0,2013-01-21 11:35:00
6:55 AM,26.6,14.0,59,30.12,-9999.0,Calm,Calm,-,N/A,,Clear,0,2013-01-21 11:55:00
7:15 AM,26.6,15.8,64,30.13,-9999.0,Calm,Calm,-,N/A,,Clear,0,2013-01-21 12:15:00
7:35 AM,26.6,15.8,64,30.14,-9999.0,Calm,Calm,-,N/A,,Clear,0,2013-01-21 12:35:00
7:55 AM,26.6,15.8,64,30.14,-9999.0,Calm,Calm,-,N/A,,Clear,0,2013-01-21 12:55:00
8:15 AM,28.4,17.6,64,30.13,-9999.0,Calm,Calm,-,N/A,,Clear,0,2013-01-21 13:15:00
8:35 AM,30.2,12.2,47,30.13,-9999.0,NE,3.5,-,N/A,,Clear,40,2013-01-21 13:35:00
8:55 AM,30.2,12.2,47,30.12,-9999.0,NE,4.6,-,N/A,,Clear,40,2013-01-21 13:55:00
9:15 AM,30.2,10.4,44,30.12,-9999.0,NE,3.5,-,N/A,,Clear,50,2013-01-21 14:15:00
9:35 AM,32.0,10.4,41,30.13,-9999.0,Calm,Calm,-,N/A,,Clear,0,2013-01-21 14:35:00
9:55 AM,33.8,10.4,38,30.12,10.0,South,3.5,-,N/A,,Clear,190,2013-01-21 14:55:00
10:15 AM,35.6,10.4,35,30.11,10.0,Calm,Calm,-,N/A,,Clear,0,2013-01-21 15:15:00
10:35 AM,35.6,12.2,38,30.11,10.0,WSW,3.5,-,N/A,,Clear,250,2013-01-21 15:35:00
10:55 AM,33.8,10.4,38,30.10,10.0,East,4.6,-,N/A,,Clear,90,2013-01-21 15:55:00
11:15 AM,35.6,10.4,35,30.08,10.0,South,3.5,-,N/A,,Clear,180,2013-01-21 16:15:00
11:35 AM,37.4,14.0,38,30.06,10.0,SSE,4.6,-,N/A,,Clear,150,2013-01-21 16:35:00
11:55 AM,37.4,12.2,36,30.05,10.0,South,4.6,-,N/A,,Clear,170,2013-01-21 16:55:00
12:15 PM,37.4,14.0,38,30.03,10.0,SE,3.5,-,N/A,,Clear,130,2013-01-21 17:15:00
12:35 PM,37.4,12.2,36,30.02,10.0,SE,6.9,-,N/A,,Clear,140,2013-01-21 17:35:00
12:55 PM,37.4,15.8,41,30.01,10.0,SE,5.8,-,N/A,,Clear,130,2013-01-21 17:55:00
1:15 PM,37.4,15.8,41,30.00,10.0,SSE,6.9,-,N/A,,Clear,150,2013-01-21 18:15:00
1:35 PM,37.4,17.6,45,29.99,10.0,SE,6.9,-,N/A,,Clear,140,2013-01-21 18:35:00
1:55 PM,37.4,17.6,45,29.98,10.0,SSE,8.1,-,N/A,,Clear,160,2013-01-21 18:55:00
2:15 PM,37.4,17.6,45,29.96,10.0,SSE,6.9,-,N/A,,Clear,160,2013-01-21 19:15:00
2:35 PM,35.6,17.6,48,29.95,10.0,SE,6.9,-,N/A,,Clear,140,2013-01-21 19:35:00
2:55 PM,37.4,19.4,48,29.94,10.0,SSE,9.2,-,N/A,,Clear,150,2013-01-21 19:55:00
3:15 PM,37.4,19.4,48,29.92,10.0,SE,10.4,-,N/A,,Clear,130,2013-01-21 20:15:00
3:35 PM,-9999,-9999,N/A,29.89,10.0,SE,12.7,-,N/A,,Clear,130,2013-01-21 20:35:00
3:55 PM,37.4,21.2,52,29.89,10.0,SE,11.5,-,N/A,,Clear,140,2013-01-21 20:55:00
4:15 PM,37.4,21.2,52,29.87,10.0,ESE,10.4,-,N/A,,Clear,120,2013-01-21 21:15:00
4:35 PM,37.4,23.0,56,29.85,10.0,ESE,6.9,-,N/A,,Scattered Clouds,120,2013-01-21 21:35:00
4:55 PM,37.4,24.8,60,29.85,10.0,ESE,3.5,-,N/A,,Scattered Clouds,120,2013-01-21 21:55:00
5:15 PM,37.4,24.8,60,29.84,10.0,NNE,3.5,-,N/A,,Scattered Clouds,20,2013-01-21 22:15:00
5:35 PM,35.6,24.8,65,29.84,-9999.0,North,4.6,-,N/A,,Partly Cloudy,10,2013-01-21 22:35:00
5:55 PM,33.8,24.8,70,29.83,-9999.0,NE,4.6,-,N/A,,Mostly Cloudy,40,2013-01-21 22:55:00
6:15 PM,33.8,24.8,70,29.83,-9999.0,North,4.6,-,N/A,,Scattered Clouds,10,2013-01-21 23:15:00
6:35 PM,33.8,24.8,70,29.82,-9999.0,NNE,4.6,-,N/A,,Mostly Cloudy,20,2013-01-21 23:35:00
6:55 PM,35.6,26.6,70,29.80,-9999.0,NE,3.5,-,N/A,,Mostly Cloudy,50,2013-01-21 23:55:00
7:15 PM,35.6,26.6,70,29.78,-9999.0,NE,3.5,-,N/A,,Mostly Cloudy,50,2013-01-22 00:15:00
7:55 PM,35.6,26.6,70,29.79,-9999.0,NNW,6.9,-,N/A,,Overcast,330,2013-01-22 00:55:00
8:15 PM,35.6,24.8,65,29.80,10.0,North,15.0,24.2,N/A,,Overcast,360,2013-01-22 01:15:00
8:35 PM,33.8,24.8,70,29.83,3.0,NNW,16.1,24.2,N/A,Thunderstorm,Overcast,340,2013-01-22 01:35:00
8:55 PM,30.2,24.8,80,29.86,4.0,NNW,13.8,26.5,N/A,,Overcast,340,2013-01-22 01:55:00
9:15 PM,30.2,26.6,86,29.85,0.5,NNW,10.4,29.9,N/A,,Overcast,340,2013-01-22 02:15:00
9:35 PM,30.2,26.6,86,29.86,4.0,NNW,12.7,18.4,N/A,,Overcast,330,2013-01-22 02:35:00
9:55 PM,30.2,26.6,86,29.86,10.0,NNW,11.5,20.7,N/A,,Overcast,340,2013-01-22 02:55:00
10:15 PM,30.2,24.8,80,29.87,10.0,NNW,10.4,18.4,N/A,,Overcast,330,2013-01-22 03:15:00
10:35 PM,30.2,24.8,80,29.88,10.0,NNW,9.2,17.3,N/A,,Overcast,340,2013-01-22 03:35:00
10:55 PM,30.2,21.2,69,29.88,10.0,NNW,9.2,18.4,N/A,,Mostly Cloudy,330,2013-01-22 03:55:00
11:15 PM,30.2,19.4,64,29.88,10.0,NNW,11.5,20.7,N/A,,Partly Cloudy,330,2013-01-22 04:15:00
11:35 PM,30.2,19.4,64,29.89,10.0,NNW,10.4,-,N/A,,Clear,340,2013-01-22 04:35:00
11:55 PM,30.2,19.4,64,29.89,10.0,NW,9.2,-,N/A,,Clear,320,2013-01-22 04:55:00